Weather History for Topeka, KS

Change the Weather History Date:

Saturday, November 24, 2012

  Actual Average Record
Temperature  
Mean Temperature 36 °F 40 °F  
Max Temperature 50 °F 50 °F 76 °F (1990)
Min Temperature 22 °F 29 °F 9 °F (1898)
Degree Days  
Heating Degree Days 29 26  
Month to date heating degree days 364 473  
Since 1 July heating degree days 737 829  
Cooling Degree Days 0 0  
Month to date cooling degree days 4 0  
Year to date cooling degree days 1978 1420  
Moisture  
Dew Point 19 °F    
Average Humidity 57    
Maximum Humidity 84    
Minimum Humidity 29    
Precipitation  
Precipitation 0.00 in 0.06 in 0.68 in (2001)
Month to date precipitation 1.27 1.53  
Year to date precipitation 22.27 34.79  
Snow  
Snow 0.00 in 0.10 in 2.70 in (2004)
Month to date snowfall 0.0 0.6  
Year to date snowfall 3.0 12.2  
Since 1 July snowfall 0.0 0.9  
Snow Depth 0.00 in    
Sea Level Pressure  
Sea Level Pressure 30.16 in    
Wind  
Wind Speed 8 mph (South)    
Max Wind Speed 20 mph    
Max Gust Speed 25 mph    
Visibility 10 miles    
Events      
T = Trace of Precipitation, MM = Missing Value Source: NWS Daily Summary

Daily Weather History Graph

Daily Weather History Graph

Search for Another Location

Airport:

Trip Planner

Search our weather history database for the weather conditions in past years. The results will help you decide how hot, cold, wet, or windy it might be!

Date:

Astronomy

Nov. 24, 2012 Rise Set
Actual Time 7:15 AM CST 5:02 PM CST
Civil Twilight 6:46 AM CST 5:31 PM CST
Nautical Twilight 6:13 AM CST 6:04 PM CST
Astronomical Twilight 5:41 AM CST 6:36 PM CST
Moon 2:46 PM CST (11/24) 3:35 AM CST (11/24)
Length of Visible Light 10h 44m
Length of Day
9h 46m
Waxing Gibbous, 87% of the Moon is Illuminated
Nov 24
Waxing Gibbous
Nov 28
Full
Dec 6
Last Quarter
Dec 13
New
Dec 19
First Quarter

Hourly Weather History & Observations

Time (CST) Temp. Windchill Dew Point Humidity Pressure Visibility Wind Dir Wind Speed Gust Speed Precip Events Conditions
12:53 AM 24.1 °F - 14.0 °F 65% 30.44 in 10.0 mi Calm Calm - N/A   Clear
1:53 AM 21.9 °F - 14.0 °F 72% 30.43 in 10.0 mi Calm Calm - N/A   Clear
2:53 AM 23.0 °F - 15.1 °F 72% 30.43 in 10.0 mi Calm Calm - N/A   Clear
3:53 AM 21.9 °F - 15.1 °F 75% 30.40 in 10.0 mi Calm Calm - N/A   Clear
4:53 AM 21.9 °F - 15.1 °F 75% 30.39 in 10.0 mi Calm Calm - N/A   Clear
5:53 AM 21.9 °F - 16.0 °F 78% 30.38 in 10.0 mi Calm Calm - N/A   Clear
6:53 AM 21.9 °F 14.5 °F 17.1 °F 82% 30.38 in 10.0 mi East 5.8 mph - N/A   Clear
7:53 AM 24.1 °F 19.7 °F 18.0 °F 77% 30.36 in 10.0 mi East 3.5 mph - N/A   Clear
8:53 AM 30.9 °F 24.3 °F 14.0 °F 50% 30.34 in 10.0 mi South 6.9 mph - N/A   Clear
9:53 AM 36.0 °F 28.0 °F 15.1 °F 43% 30.31 in 10.0 mi SSE 11.5 mph - N/A   Clear
10:53 AM 39.9 °F 32.9 °F 15.1 °F 36% 30.27 in 10.0 mi SE 11.5 mph - N/A   Clear
11:53 AM 44.1 °F 37.7 °F 16.0 °F 32% 30.20 in 10.0 mi South 12.7 mph - N/A   Clear
12:53 PM 46.9 °F - 17.1 °F 30% 30.13 in 10.0 mi South 15.0 mph 19.6 mph N/A   Clear
1:53 PM 48.9 °F - 19.0 °F 31% 30.08 in 10.0 mi South 16.1 mph 23.0 mph N/A   Clear
2:53 PM 50.0 °F - 19.9 °F 31% 30.05 in 10.0 mi South 16.1 mph 20.7 mph N/A   Clear
3:53 PM 48.9 °F - 21.0 °F 33% 30.02 in 10.0 mi South 15.0 mph 20.7 mph N/A   Clear
4:53 PM 48.0 °F - 21.9 °F 36% 30.01 in 10.0 mi South 9.2 mph - N/A   Clear
5:53 PM 46.0 °F 42.5 °F 21.9 °F 39% 29.99 in 10.0 mi South 6.9 mph - N/A   Clear
6:53 PM 43.0 °F 39.5 °F 23.0 °F 45% 29.97 in 10.0 mi SSE 5.8 mph - N/A   Clear
7:53 PM 44.1 °F 38.6 °F 23.0 °F 43% 29.94 in 10.0 mi South 10.4 mph - N/A   Clear
8:53 PM 45.0 °F 40.6 °F 23.0 °F 42% 29.93 in 10.0 mi SSW 8.1 mph - N/A   Clear
9:53 PM 46.9 °F - 23.0 °F 39% 29.89 in 10.0 mi SSW 16.1 mph 24.2 mph N/A   Clear
10:53 PM 48.0 °F - 23.0 °F 37% 29.89 in 10.0 mi SW 6.9 mph - N/A   Clear
11:53 PM 46.9 °F - 23.0 °F 39% 29.90 in 10.0 mi South 4.6 mph - N/A   Clear